{"data":{"norad_id":65516,"intl_designator":"2025-198AA","name":"STARLINK-35216","alt_names":[],"object_type":"PAYLOAD","status":"ACTIVE","operator":null,"country":"US","launch_date":"2025-09-05","launch_site_code":"AFETR","launch_vehicle":null,"mission":null,"orbit_class":"UNKNOWN","rcs_meters":null,"size_class":null,"mass_kg":null,"dimensions":null,"purposes":["comms"],"wikipedia_slug":null,"has_3d_model":false,"image_url":null,"decayed_at":null,"tle_current":{"epoch":"2026-05-24T16:38:40.871040Z","epoch_age_seconds":91707,"freshness":"FRESH","line1":"1 65516U 25198AA  26144.69352860 -.00005806  00000+0 -18403-3 0  9993","line2":"2 65516  53.1601 278.1717 0001005  80.3352 279.7762 15.30206664 40255","mean_motion":15.30206664,"eccentricity":0.0001005,"inclination_deg":53.1601,"raan_deg":278.1717,"arg_perigee_deg":80.3352,"mean_anomaly_deg":279.7762,"bstar":-0.00018403,"rev_number":4025,"period_min":94.104935880739,"perigee_km":474.50641210544,"apogee_km":475.88393187201,"semimajor_km":6853.3321719887,"source":"CELESTRAK","updated_at":"2026-05-25T13:38:20.844885Z"}}}